STARLINK-5927 (55934 NORAD) Tracking and Keplerian Element Data

This shows tracking and keplerian element data for the satellite.

Feedback or suggestion? Click here.




ElementValue
Catalog55934
NameSTARLINK-5927
Epoch Orbit839
Epoch Day126.86794777
Epoch Year2023
RAAN40.2108
Inclination70.0014
Eccentricity0.0003694
Argument of Perigee261.7067
Mean Anonmoly98.371
Mean Motion15.69941444
Decay Rate3.209E-05
L11 55934U 23037W 23126.86794777 .00003209 00000+0 28429-4 0 9992
L22 55934 70.0014 40.2108 0003694 261.7067 98.3710 15.69941444 8391



Live tracking and technical data element details for STARLINK-5927 (NORAD 55934). STARLINK-5927 can be tracked NOW for your location showing map with azimuth and elevation plus other details from your city location.







IsCatalogInMostPopularTable: catalog: 55934, numindb: 9
Update: records affected: 1



GetName: 55934 STARLINK-5927

Hit Count: updated at: Tue, 06 Jun 2023 03:37:59 GMT